Location: Nora Junction
(43.1400°N, 93.0163°W)
Time: 01:54:26
(UTC+00:00)

Meteor 1-28 Rocket - Pass Details

Date: 18 November 2025
Orbit: 433 x 442 km, 97.6° (Epoch: 08 December)

Event Time Altitude Azimuth Distance (km) Brightness Sun altitude
Rises 23:16:02 0° 8° (N) 2,455 6.3 -6.0°
Reaches altitude 10° 23:18:05 10° 5° (N) 1,579 5.4 -6.3°
Maximum altitude 23:21:25 60° 286° (WNW) 519 3.5 -6.9°
Drops below altitude 10° 23:24:44 10° 205° (SSW) 1,566 6.4 -7.5°
Sets 23:26:45 0° 202° (SSW) 2,431 7.3 -7.8°
